Stations météo

Publicité
Saarbrücken-Ensheim, Allemagne (10708): Température de l'air & dewpoint: 10.01.2019 17:00:00 - 16.01.2019 17:00:00 (CET)Saarbrücken-Ensheim, Allemagne (10708): Température de l'air 5cm & Température de l'air -5cm: 10.01.2019 17:00:00 - 16.01.2019 17:00:00 (CET)Saarbrücken-Ensheim, Allemagne (10708): Température de l'air -20cm & Température de l'air -100cm: 10.01.2019 17:00:00 - 16.01.2019 17:00:00 (CET)Saarbrücken-Ensheim, Allemagne (10708): Vitesse du vent & gusts: 10.01.2019 17:00:00 - 16.01.2019 17:00:00 (CET)Saarbrücken-Ensheim, Allemagne (10708): Direction du vent: 10.01.2019 17:00:00 - 16.01.2019 17:00:00 (CET)Saarbrücken-Ensheim, Allemagne (10708): reduced air pressure: 10.01.2019 17:00:00 - 16.01.2019 17:00:00 (CET)Saarbrücken-Ensheim, Allemagne (10708): visibility: 10.01.2019 17:00:00 - 16.01.2019 17:00:00 (CET)Saarbrücken-Ensheim, Allemagne (10708): Ensoleillement: 10.01.2019 17:00:00 - 16.01.2019 17:00:00 (CET)Saarbrücken-Ensheim, Allemagne (10708): Quantités de précipitations: 10.01.2019 17:00:00 - 16.01.2019 17:00:00 (CET)
Date & Time tt [°C] td [°C] tt 5cm [°C] tt -5cm [°C] tt -20cm [°C] tt -100cm [°C] ff [km/h] ff [knt] fx [km/h] fx [knt] dd ppp [hPa] vv [km] sd [min] rr [mm]
16.01.2019 17:00:00 - - - - - - - - - - - - - - -
16.01.2019 16:00:00 4,6 -0,6 3,9 4,7 4,1 6,0 13 7 25 13 SW 1011,2 40 11 0,0
16.01.2019 15:00:00 4,5 -1,0 4,4 5,0 3,9 6,0 20 11 36 19 SW 1011,9 35 59 0,0
16.01.2019 14:00:00 4,7 -1,1 4,9 5,0 3,7 6,0 22 12 33 18 SW 1012,6 10 58 0,0
16.01.2019 13:00:00 4,8 -1,0 5,3 4,9 3,5 6,0 19 10 30 16 SSW 1013,7 40 59 0,0
16.01.2019 12:00:00 3,8 -0,8 4,6 3,9 3,4 6,0 13 7 18 10 SW 1015,0 40 58 0,0
16.01.2019 11:00:00 2,4 -1,5 2,9 2,9 3,4 6,0 13 7 21 11 SW 1016,2 10 46 0,0
16.01.2019 10:00:00 1,7 -1,6 1,1 2,4 3,4 6,0 15 8 18 10 SSW 1016,9 40 8 0,0
16.01.2019 09:00:00 2,1 -1,3 1,7 2,3 3,4 6,0 10 5 17 9 SW 1016,8 30 0 0,0
16.01.2019 08:00:00 2,5 -1,3 2,0 2,4 3,5 6,0 11 6 16 9 SW 1016,9 30 0 0,0
16.01.2019 07:00:00 3,0 -1,3 2,5 2,6 3,5 6,0 14 8 21 11 WSW 1017,2 30 0 0,0
16.01.2019 06:00:00 3,2 -1,1 2,7 2,7 3,5 6,0 11 6 21 11 SW 1017,7 30 0 0,0
16.01.2019 05:00:00 3,3 -1,1 2,8 2,7 3,6 6,0 11 6 22 12 WSW 1018,4 30 0 0,0
16.01.2019 04:00:00 3,5 -1,3 2,9 2,8 3,6 6,0 13 7 29 15 WSW 1019,1 10 0 0,0
16.01.2019 03:00:00 3,6 -1,2 3,1 2,9 3,7 6,0 15 8 24 13 WSW 1019,7 10 0 0,0
16.01.2019 02:00:00 3,8 -0,8 3,2 3,0 3,7 6,0 16 9 26 14 WSW 1019,9 30 0 0,0
16.01.2019 01:00:00 4,0 -0,3 3,4 3,1 3,7 6,0 18 10 25 14 WSW 1020,4 10 0 0,0
16.01.2019 00:00:00 4,1 0,2 3,6 3,2 3,7 6,0 19 10 24 13 WSW 1020,8 25 0 0,0
15.01.2019 23:00:00 4,2 0,8 3,7 3,2 3,7 6,0 16 9 29 16 WSW 1021,2 10 0 0,0
15.01.2019 22:00:00 4,3 1,0 3,7 3,3 3,8 6,0 22 12 30 16 WSW 1021,3 10 0 0,0
15.01.2019 21:00:00 4,3 1,2 3,7 3,3 3,8 6,0 16 9 27 15 WSW 1021,4 25 0 0,0
15.01.2019 20:00:00 4,4 1,0 3,8 3,4 3,8 6,0 18 10 29 16 WSW 1021,6 10 0 0,0
15.01.2019 19:00:00 4,4 0,9 3,9 3,6 3,8 6,0 18 10 28 15 WSW 1021,6 10 0 0,0
15.01.2019 18:00:00 4,4 1,2 3,7 3,8 3,8 6,0 16 9 38 20 WSW 1021,8 10 0 0,0
15.01.2019 17:00:00 4,7 1,2 4,2 4,1 3,7 6,0 16 9 26 14 WSW 1021,9 10 0 0,0
15.01.2019 16:00:00 4,9 0,8 4,8 4,2 3,6 6,0 19 10 34 18 WSW 1021,9 30 0 0,0
15.01.2019 15:00:00 4,8 0,7 4,7 4,3 3,4 6,0 18 10 30 16 W 1022,1 10 0 0,0
15.01.2019 14:00:00 4,7 1,2 4,8 4,3 3,2 6,0 21 11 28 15 W 1022,3 10 0 0,0
15.01.2019 13:00:00 4,4 0,9 4,8 3,9 3,0 6,0 18 10 27 14 W 1022,8 10 0 0,0
15.01.2019 12:00:00 3,7 1,6 4,1 2,9 2,8 6,0 21 11 26 14 WSW 1023,3 10 0 0,0
15.01.2019 11:00:00 3,0 1,7 3,0 2,3 2,7 6,0 13 7 21 11 WSW 1024,1 17 0 -
15.01.2019 10:00:00 2,4 1,6 2,3 1,6 2,7 6,0 13 7 21 11 SW 1024,0 10 0 0,0
15.01.2019 09:00:00 2,0 1,3 1,6 1,1 2,7 6,0 11 6 16 9 SW 1024,0 10 0 0,0
15.01.2019 08:00:00 1,8 1,0 1,1 0,9 2,8 6,0 13 7 21 11 WSW 1023,6 15 0 0,0
15.01.2019 07:00:00 1,4 0,4 0,0 0,9 2,8 6,0 9 5 15 8 WSW 1023,7 10 0 0,0
15.01.2019 06:00:00 1,4 0,4 0,4 1,0 2,9 6,0 12 6 16 9 SSW 1023,6 30 0 0,0
15.01.2019 05:00:00 1,1 0,1 -0,1 1,0 3,0 6,0 5 3 9 5 S 1024,2 10 0 0,0
15.01.2019 04:00:00 0,7 -0,2 -0,7 1,0 3,1 6,0 5 3 5 3 SW 1024,5 10 0 0,0
15.01.2019 03:00:00 0,4 -0,5 -0,8 1,0 3,2 5,9 4 2 15 8 WNW 1024,5 35 0 0,0
15.01.2019 02:00:00 1,4 -0,4 0,1 1,1 3,3 5,9 10 5 15 8 W 1024,1 40 0 0,0
15.01.2019 01:00:00 1,2 -0,7 -0,1 1,2 3,4 5,9 10 6 14 8 W 1023,9 40 0 0,0
15.01.2019 00:00:00 0,6 -0,6 -0,5 1,2 3,5 5,9 5 3 13 7 SW 1023,4 10 0 0,0
14.01.2019 23:00:00 0,6 -1,0 -0,5 1,3 3,7 5,9 8 4 13 7 W 1023,1 50 0 0,0
14.01.2019 22:00:00 0,2 -1,3 -1,6 1,4 3,9 5,9 11 6 15 8 WNW 1022,8 10 0 0,0
14.01.2019 21:00:00 1,2 -1,0 -1,3 1,5 4,1 5,9 7 4 21 11 W 1022,2 50 0 0,0
14.01.2019 20:00:00 1,0 -1,3 -1,2 2,3 4,4 5,9 11 6 31 17 NW 1021,1 10 0 0,0
14.01.2019 19:00:00 2,3 -0,7 -0,2 3,0 4,5 5,9 9 5 27 14 NW 1020,3 10 0 0,0
14.01.2019 18:00:00 3,8 0,8 2,9 4,0 4,6 5,9 14 7 27 15 W 1018,8 40 0 0,0
14.01.2019 17:00:00 4,2 1,0 3,5 4,4 4,7 5,9 13 7 21 11 WNW 1018,0 35 0 0,0
14.01.2019 16:00:00 4,2 1,0 3,9 5,2 4,6 5,9 14 8 28 15 N 1017,0 35 2 0,0
14.01.2019 15:00:00 5,7 1,8 5,8 5,5 4,5 5,9 22 12 41 22 WNW 1015,6 10 18 0,0
14.01.2019 14:00:00 5,2 2,2 4,5 5,2 4,3 5,9 26 14 41 22 WNW 1014,9 10 5 0,1
14.01.2019 13:00:00 5,2 2,8 4,8 4,6 4,3 5,9 22 12 42 23 WNW 1014,7 10 3 0,1
14.01.2019 12:00:00 5,0 2,4 4,4 4,5 4,2 5,9 19 11 31 17 W 1014,3 20 0 0,0
14.01.2019 11:00:00 4,6 3,0 4,7 4,1 4,1 5,9 21 11 28 15 W 1014,3 10 2 0,0
14.01.2019 10:00:00 4,0 2,8 3,6 3,4 4,1 5,9 22 12 28 15 W 1014,0 10 0 0,2
14.01.2019 09:00:00 4,2 2,4 3,2 3,1 4,2 5,9 16 8 29 16 W 1013,2 25 0 0,0
14.01.2019 08:00:00 4,0 2,8 2,6 3,3 4,3 5,9 16 9 26 14 W 1011,9 10 0 0,0
14.01.2019 07:00:00 4,3 2,3 3,6 3,3 4,4 5,9 18 10 29 16 W 1011,4 30 0 0,0
14.01.2019 06:00:00 4,6 2,5 3,6 3,3 4,5 5,9 11 6 36 20 W 1010,7 10 0 0,0
14.01.2019 05:00:00 4,7 1,9 3,1 3,5 4,7 5,9 18 10 35 19 WNW 1010,2 10 0 0,0
14.01.2019 04:00:00 4,6 2,0 2,8 3,6 4,9 5,9 21 11 46 25 WNW 1009,3 10 0 0,0
14.01.2019 03:00:00 4,9 2,4 3,0 4,2 5,0 5,9 22 12 35 19 WNW 1008,5 10 0 0,0
14.01.2019 02:00:00 5,5 3,4 3,7 5,1 5,1 5,9 18 10 36 19 WNW 1007,4 10 0 0,0
14.01.2019 01:00:00 6,3 4,2 5,3 5,5 5,1 5,9 23 13 42 23 WNW 1006,9 40 0 0,1
14.01.2019 00:00:00 7,0 4,4 5,8 5,9 5,1 5,9 34 18 50 27 WNW 1006,6 10 0 0,4
13.01.2019 23:00:00 7,6 6,0 6,8 6,0 5,1 5,9 25 14 46 25 W 1006,1 40 0 0,0
13.01.2019 22:00:00 7,6 6,6 7,0 6,1 5,0 5,9 24 13 41 22 W 1006,0 10 0 0,0
13.01.2019 21:00:00 7,6 7,0 7,1 6,2 4,9 5,9 29 16 55 30 W 1005,9 10 0 0,6
13.01.2019 20:00:00 7,7 7,2 7,2 6,2 4,9 5,9 35 19 53 29 W 1006,4 3,5 0 1,3
13.01.2019 19:00:00 7,9 7,4 7,4 6,2 4,8 5,9 32 17 57 31 W 1006,6 2,2 0 1,6
13.01.2019 18:00:00 8,0 7,4 7,5 6,1 4,6 5,9 33 18 49 26 W 1006,8 4,5 0 1,1
13.01.2019 17:00:00 8,0 7,3 7,4 6,0 4,5 5,9 34 18 57 31 W 1007,2 7 0 0,3
13.01.2019 16:00:00 7,6 7,1 7,2 5,9 4,4 5,9 31 17 48 26 W 1008,2 3,5 0 0,6
13.01.2019 15:00:00 7,7 6,6 7,0 5,8 4,3 5,9 31 17 59 32 WSW 1008,6 10 0 0,0
13.01.2019 14:00:00 7,5 6,7 7,0 5,6 4,2 5,9 41 22 59 32 W 1009,6 10 0 0,0
13.01.2019 13:00:00 7,4 6,6 6,9 5,4 4,0 5,9 31 17 47 25 W 1010,1 10 0 0,1
13.01.2019 12:00:00 6,9 6,4 6,6 5,1 3,9 5,9 29 16 44 24 W 1011,3 4,0 0 0,1
13.01.2019 11:00:00 6,6 6,1 6,2 4,8 3,8 5,9 26 14 41 22 W 1012,2 12 0 2,1
13.01.2019 10:00:00 6,1 5,7 5,8 4,5 3,7 5,9 26 14 41 22 W 1012,8 9 0 1,8
13.01.2019 09:00:00 5,7 5,3 5,3 4,2 3,7 5,9 26 14 46 25 WSW 1013,0 3,5 0 0,5
13.01.2019 08:00:00 5,4 5,0 5,0 4,2 3,6 5,9 20 11 35 19 WSW 1013,7 10 0 0,6
13.01.2019 07:00:00 5,3 4,9 5,0 4,1 3,6 5,9 18 10 34 18 WSW 1014,5 3,5 0 0,7
13.01.2019 06:00:00 5,6 4,6 4,9 4,0 3,5 5,9 21 11 33 18 WSW 1015,3 10 0 0,0
13.01.2019 05:00:00 5,7 4,6 5,0 4,0 3,4 5,9 22 12 31 17 W 1015,5 20 0 0,0
13.01.2019 04:00:00 5,5 4,8 5,0 3,9 3,4 5,9 22 12 34 18 WSW 1015,9 10 0 0,0
13.01.2019 03:00:00 5,5 4,8 4,9 3,9 3,3 5,9 18 10 27 15 W 1016,4 15 0 0,0
13.01.2019 02:00:00 5,6 4,7 4,9 3,8 3,2 5,9 24 13 31 17 W 1016,3 10 0 0,0
13.01.2019 01:00:00 5,5 4,8 5,0 3,8 3,1 5,9 18 10 28 15 W 1016,7 10 0 0,0
13.01.2019 00:00:00 5,5 4,9 4,9 3,7 3,0 6,0 15 8 34 18 W 1016,8 10 0 0,0
12.01.2019 23:00:00 5,4 4,7 4,8 3,5 3,0 6,0 16 9 37 20 W 1016,8 25 0 0,2
12.01.2019 22:00:00 5,0 4,5 4,5 3,2 2,9 6,0 27 14 40 22 W 1017,3 25 0 0,8
12.01.2019 21:00:00 4,4 3,9 4,0 3,1 2,8 6,0 24 13 35 19 WSW 1017,7 8 0 1,5
12.01.2019 20:00:00 4,2 3,7 3,7 2,9 2,8 6,0 25 13 36 20 WSW 1018,5 6 0 2,4
12.01.2019 19:00:00 3,7 3,2 3,4 2,8 2,7 6,0 23 13 42 23 WSW 1019,0 5 0 1,0
12.01.2019 18:00:00 3,4 2,7 3,0 2,8 2,7 6,0 24 13 42 23 WSW 1019,6 6 0 2,2
12.01.2019 17:00:00 3,4 2,5 2,9 2,8 2,6 6,0 25 14 41 22 WSW 1020,4 5 0 0,3
12.01.2019 16:00:00 3,9 2,5 3,3 2,9 2,5 6,0 27 15 41 22 WSW 1021,0 14 0 0,2
12.01.2019 15:00:00 3,7 2,3 3,3 2,9 2,4 6,0 25 13 38 21 WSW 1021,9 15 0 0,0
12.01.2019 14:00:00 3,5 2,5 3,1 2,9 2,2 6,0 23 13 35 19 W 1023,1 6 0 0,1
12.01.2019 13:00:00 3,6 2,5 3,3 2,6 2,0 6,0 28 15 37 20 W 1023,6 5 0 0,2
12.01.2019 12:00:00 3,2 2,6 3,0 2,0 1,9 6,0 24 13 33 18 WSW 1024,7 4,0 0 0,1
12.01.2019 11:00:00 3,2 2,5 3,0 1,5 1,8 6,0 22 12 31 17 WSW 1025,4 6 0 0,0
12.01.2019 10:00:00 3,1 2,2 2,5 0,7 1,7 6,0 17 9 29 16 WSW 1026,0 10 0 0,0
12.01.2019 09:00:00 3,2 2,6 2,6 0,5 1,7 6,0 16 9 25 13 W 1026,3 6 0 0,0
12.01.2019 08:00:00 3,1 2,6 2,3 0,5 1,8 6,0 16 8 21 11 W 1026,1 6 0 0,0
12.01.2019 07:00:00 3,0 2,7 2,3 0,5 1,8 6,0 13 7 18 10 W 1025,8 3,0 0 0,0
12.01.2019 06:00:00 2,6 2,4 1,9 0,5 1,8 6,1 9 5 16 9 WSW 1026,1 1,6 0 0,1
12.01.2019 05:00:00 2,2 2,0 1,6 0,5 1,8 6,1 11 6 15 8 WSW 1026,5 1,7 0 0,0
12.01.2019 04:00:00 1,9 1,6 1,4 0,5 1,8 6,1 8 4 13 7 SW 1026,8 0,8 0 0,0
12.01.2019 03:00:00 1,4 1,2 0,9 0,5 1,8 6,1 6 4 15 8 WSW 1027,2 0,7 0 0,0
12.01.2019 02:00:00 0,8 0,6 0,5 0,5 1,8 6,1 11 6 16 9 SW 1027,0 0,9 0 0,1
12.01.2019 01:00:00 0,6 0,4 0,4 0,5 1,8 6,1 11 6 17 9 SW 1026,9 0,5 0 0,0
12.01.2019 00:00:00 0,5 0,4 0,1 0,5 1,8 6,1 9 5 16 9 SW 1026,9 0,4 0 0,0
11.01.2019 23:00:00 0,4 0,2 0,0 0,5 1,8 6,1 11 6 18 10 SW 1026,8 0,5 0 0,0
11.01.2019 22:00:00 0,4 0,3 0,0 0,5 1,8 6,1 9 5 16 9 SW 1026,9 0,9 0 0,1
11.01.2019 21:00:00 0,2 0,0 -0,1 0,5 1,8 6,1 11 6 15 8 SW 1026,7 0,9 0 0,0
11.01.2019 20:00:00 0,1 -0,2 -0,1 0,5 1,8 6,1 11 6 20 11 WSW 1026,6 1,1 0 0,2
11.01.2019 19:00:00 0,0 -0,4 -0,2 0,5 1,8 6,1 13 7 22 12 WSW 1026,8 1,5 0 0,0
11.01.2019 18:00:00 -0,1 -0,5 -0,3 0,5 1,8 6,1 15 8 21 11 WSW 1026,5 1,8 0 0,0
11.01.2019 17:00:00 -0,2 -0,7 -0,4 0,5 1,8 6,1 13 7 16 9 WSW 1026,6 3,2 0 0,0
11.01.2019 16:00:00 -0,2 -0,7 -0,3 0,5 1,9 6,1 15 8 21 11 WSW 1026,2 2,5 0 0,2
11.01.2019 15:00:00 -0,4 -1,0 -0,4 0,5 1,9 6,1 15 8 21 11 WSW 1026,3 1,5 0 0,7
11.01.2019 14:00:00 -0,4 -1,1 -0,3 0,5 1,9 6,1 15 8 21 11 WSW 1026,5 2,4 0 0,3
11.01.2019 13:00:00 -0,6 -1,4 -0,3 0,5 1,9 6,1 15 8 21 11 WSW 1026,9 1,7 0 0,3
11.01.2019 12:00:00 -0,8 -1,6 -0,5 0,5 1,9 6,1 13 7 18 10 SW 1027,5 1,5 0 0,4
11.01.2019 11:00:00 -1,1 -2,0 -0,7 0,5 1,9 6,1 16 9 21 11 WSW 1027,7 2,2 0 0,1
11.01.2019 10:00:00 -1,3 -2,4 -1,1 0,5 1,9 6,1 11 6 15 8 SW 1027,6 3,5 0 0,1
11.01.2019 09:00:00 -1,5 -3,0 -1,6 0,5 2,0 6,1 9 5 11 6 SSW 1027,7 3,0 0 0,0
11.01.2019 08:00:00 -1,1 -3,5 -1,4 0,5 2,0 6,1 4 2 8 4 SW 1027,7 10 0 0,0
11.01.2019 07:00:00 -1,4 -3,6 -1,7 0,5 2,0 6,1 8 4 9 5 W 1027,6 10 0 0,0
11.01.2019 06:00:00 -1,6 -3,8 -2,0 0,5 2,0 6,2 8 4 8 4 W 1027,7 10 0 0,0
11.01.2019 05:00:00 -2,0 -3,8 -2,4 0,5 2,1 6,2 8 4 9 5 WNW 1027,8 10 0 0,0
11.01.2019 04:00:00 -1,8 -4,3 -3,3 0,5 2,1 6,2 6 3 8 4 W 1027,8 20 0 0,0
11.01.2019 03:00:00 -1,7 -4,5 -3,2 0,6 2,1 6,2 6 3 8 4 W 1028,2 20 0 0,0
11.01.2019 02:00:00 -2,5 -4,8 -3,5 0,6 2,2 6,2 3 1 4 2 W 1028,0 20 0 0,0
11.01.2019 01:00:00 -2,2 -4,4 -4,1 0,6 2,2 6,2 2 1 5 3 - 1028,0 10 0 0,0
11.01.2019 00:00:00 -1,9 -4,8 -3,1 0,7 2,2 6,2 5 3 5 3 NW 1028,3 10 0 0,0
10.01.2019 23:00:00 -1,9 -4,6 -4,3 0,7 2,3 6,2 4 2 5 3 NW 1028,3 10 0 0,0
10.01.2019 22:00:00 -1,8 -4,7 -4,0 0,7 2,3 6,2 4 2 9 5 N 1028,0 10 0 0,0
10.01.2019 21:00:00 -0,9 -5,0 -2,7 0,8 2,4 6,2 4 2 9 5 - 1027,9 10 0 0,0
10.01.2019 20:00:00 -0,4 -5,5 -1,0 0,8 2,4 6,2 5 3 13 7 NNE 1027,7 10 0 0,0
10.01.2019 19:00:00 -0,4 -5,3 -0,9 0,9 2,5 6,2 9 5 18 10 NE 1027,3 10 0 0,0
10.01.2019 18:00:00 0,0 -5,4 -0,4 1,0 2,6 6,2 9 5 26 14 NE 1027,1 40 0 0,0
10.01.2019 17:00:00 0,4 -5,7 0,0 1,3 2,6 6,2 15 8 24 13 NE 1026,7 10 0 0,0

tt = Température de l'air
td = dewpoint
tt 5cm = Température de l'air 5cm
tt -5cm = Température de l'air -5cm
tt -20cm = Température de l'air -20cm
tt -100cm = Température de l'air -100cm
ff = Vitesse du vent
fx = gusts
dd = Direction du vent
ppp = reduced air pressure
vv = visibility
sd = Ensoleillement
rr = Quantités de précipitations

stations d'obs. à proximité